Chicago, IL

6:58 AM CST on December 09, 2016 (GMT -0600)
Chicago-Midway

Weather History for KMDW - December, 2013

Change the Weather History Date:

Saturday, December 14, 2013

  Actual Average Record
Temperature  
Mean Temperature 27 °F 29 °F  
Max Temperature 30 °F 35 °F 66 °F (1975)
Min Temperature 23 °F 23 °F -4 °F (1985)
Degree Days  
Heating Degree Days 38 36  
Month to date heating degree days 557 471  
Since 1 July heating degree days 1755 1606  
Cooling Degree Days 0 0  
Month to date cooling degree days 0 0  
Year to date cooling degree days 1091 1045  
Moisture  
Dew Point 26 °F    
Average Humidity 88    
Maximum Humidity 96    
Minimum Humidity 74    
Precipitation  
Precipitation 0.10 in 0.08 in 1.00 in (2011)
Month to date precipitation 0.33 1.28  
Year to date precipitation 33.90 37.80  
Snow  
Snow 0.00 in - - ()
Snow Depth 5.00 in    
Sea Level Pressure  
Sea Level Pressure 29.99 in    
Wind  
Wind Speed 11 mph (NE)    
Max Wind Speed 16 mph    
Max Gust Speed 21 mph    
Visibility 3 miles    
Events Fog , Snow    
T = Trace of Precipitation, MM = Missing Value Source: NWS Daily Summary

Daily Weather History Graph

Daily Weather History Graph

Search for Another Location

Airport or City:

Trip Planner

Search our weather history database for the weather conditions in past years. The results will help you decide how hot, cold, wet, or windy it might be!

Date:

Astronomy

Dec. 14, 2013 Rise Set
Actual Time 7:10 AM CST 4:20 PM CST
Civil Twilight 6:39 AM CST 4:52 PM CST
Nautical Twilight 6:04 AM CST 5:27 PM CST
Astronomical Twilight 5:30 AM CST 6:01 PM CST
Moon 2:43 PM CST (12/14) 4:29 AM CST (12/14)
Length of Visible Light 10h 13m
Length of Day
9h 10m
Waxing Gibbous, 94% of the Moon is Illuminated
Dec 14
Waxing Gibbous
Dec 17
Full
Dec 25
Last Quarter
Jan 1
New
Jan 7
First Quarter

Hourly Weather History & Observations

Time (CST) Temp. Windchill Dew Point Humidity Pressure Visibility Wind Dir Wind Speed Gust Speed Precip Events Conditions
12:51 AM 28.9 °F 21.9 °F 28.0 °F 96% 30.13 in 1.2 mi East 6.9 mph - 0.01 in Snow Light Snow
1:51 AM 30.0 °F 21.7 °F 28.0 °F 92% 30.11 in 1.2 mi East 9.2 mph - 0.01 in Snow Light Snow
2:30 AM 30.2 °F 21.9 °F 28.4 °F 93% 30.06 in 1.0 mi East 9.2 mph - 0.02 in Snow Light Snow
2:51 AM 30.0 °F 21.7 °F 28.0 °F 92% 30.09 in 1.0 mi East 9.2 mph - 0.02 in Snow Light Snow
3:26 AM 30.2 °F 22.6 °F 28.4 °F 93% 30.04 in 1.0 mi East 8.1 mph - 0.02 in Snow Light Snow
3:51 AM 30.0 °F 22.4 °F 28.0 °F 92% 30.06 in 1.2 mi East 8.1 mph - 0.02 in Snow Light Snow
4:51 AM 28.9 °F 19.8 °F 27.0 °F 92% 30.06 in 1.0 mi East 10.4 mph - 0.01 in Snow Light Snow
5:30 AM 28.4 °F 19.7 °F 26.6 °F 93% 30.01 in 1.0 mi ENE 9.2 mph - 0.01 in Snow Light Snow
5:51 AM 30.0 °F 20.5 °F 28.0 °F 92% 30.04 in 1.2 mi ENE 11.5 mph - 0.01 in Snow Light Snow
6:01 AM 30.2 °F 21.3 °F 28.4 °F 93% 30.01 in 1.2 mi ENE 10.4 mph - 0.00 in Snow Light Snow
6:19 AM 30.2 °F 20.8 °F 28.4 °F 93% 30.00 in 1.2 mi East 11.5 mph - 0.00 in Snow Light Snow
6:51 AM 30.0 °F 20.5 °F 28.0 °F 92% 30.04 in 1.0 mi East 11.5 mph - 0.01 in Snow Light Snow
7:02 AM 30.2 °F 21.9 °F 28.4 °F 93% 30.00 in 0.8 mi East 9.2 mph - 0.00 in Snow Light Snow
7:12 AM 30.2 °F 21.3 °F 28.4 °F 93% 30.00 in 1.0 mi East 10.4 mph - 0.00 in Snow Light Snow
7:38 AM 30.2 °F 20.8 °F 28.4 °F 93% 29.98 in 0.8 mi ENE 11.5 mph - 0.00 in Snow Light Snow
7:51 AM 30.0 °F 20.5 °F 28.0 °F 92% 30.02 in 0.5 mi ENE 11.5 mph - 0.00 in Fog , Snow Snow
8:04 AM 30.2 °F 21.3 °F 28.4 °F 93% 29.98 in 1.0 mi ENE 10.4 mph - 0.00 in Snow Light Snow
8:51 AM 30.0 °F 20.0 °F 27.0 °F 88% 30.03 in 1.2 mi ENE 12.7 mph - 0.00 in Snow Light Snow
9:14 AM 28.4 °F 18.0 °F 26.6 °F 93% 29.98 in 2.0 mi ENE 12.7 mph - 0.00 in Snow Light Snow
9:22 AM 28.4 °F 18.0 °F 26.6 °F 93% 29.99 in 1.0 mi ENE 12.7 mph - 0.00 in Snow Light Snow
9:44 AM 28.4 °F 18.0 °F 26.6 °F 93% 29.98 in 0.8 mi East 12.7 mph - 0.00 in Snow Light Snow
9:51 AM 28.9 °F 19.2 °F 27.0 °F 92% 30.02 in 0.8 mi ENE 11.5 mph - 0.00 in Snow Light Snow
10:08 AM 30.2 °F 21.3 °F 26.6 °F 86% 29.97 in 0.5 mi ENE 10.4 mph - 0.01 in Fog , Snow Snow
10:12 AM 30.2 °F 19.8 °F 28.4 °F 93% 29.97 in 0.5 mi ENE 13.8 mph - 0.01 in Fog , Snow Snow
10:31 AM 28.4 °F 18.0 °F 26.6 °F 93% 29.96 in 0.8 mi ENE 12.7 mph - 0.01 in Snow Light Snow
10:51 AM 28.9 °F 17.7 °F 27.0 °F 92% 29.99 in 1.2 mi ENE 15.0 mph - 0.01 in Snow Light Snow
11:51 AM 30.0 °F 20.5 °F 27.0 °F 88% 29.96 in 1.2 mi NE 11.5 mph - 0.00 in Snow Light Snow
11:59 AM 28.4 °F 18.0 °F 26.6 °F 93% 29.92 in 2.0 mi NE 12.7 mph - 0.00 in Snow Light Snow
12:12 PM 30.2 °F 19.8 °F 26.6 °F 86% 29.92 in 3.0 mi NE 13.8 mph - 0.00 in Snow Light Snow
12:51 PM 30.0 °F 19.5 °F 26.1 °F 85% 29.94 in 4.0 mi NE 13.8 mph - 0.00 in Snow Light Snow
1:13 PM 30.2 °F 20.8 °F 26.6 °F 86% 29.89 in 2.5 mi NE 11.5 mph - 0.00 in Snow Light Snow
1:29 PM 30.2 °F 21.3 °F 26.6 °F 86% 29.90 in 3.0 mi NNE 10.4 mph - 0.00 in Snow Light Snow
1:51 PM 30.0 °F 20.5 °F 26.1 °F 85% 29.93 in 2.5 mi NNE 11.5 mph - 0.00 in Snow Light Snow
2:27 PM 30.2 °F 21.3 °F 26.6 °F 86% 29.89 in 3.0 mi NNE 10.4 mph - 0.00 in Snow Light Snow
2:51 PM 30.0 °F 20.5 °F 27.0 °F 88% 29.93 in 5.0 mi North 11.5 mph - 0.00 in Snow Light Snow
3:51 PM 30.0 °F 20.0 °F 27.0 °F 88% 29.94 in 6.0 mi North 12.7 mph - 0.00 in Snow Light Snow
4:51 PM 30.0 °F 19.5 °F 25.0 °F 82% 29.95 in 10.0 mi North 13.8 mph 19.6 mph 0.00 in   Overcast
5:51 PM 30.0 °F 19.5 °F 25.0 °F 82% 29.97 in 10.0 mi North 13.8 mph - N/A   Overcast
6:51 PM 30.0 °F 20.0 °F 25.0 °F 82% 29.97 in 10.0 mi NNW 12.7 mph - N/A   Overcast
7:51 PM 28.9 °F 17.7 °F 23.0 °F 78% 29.98 in 10.0 mi NNW 15.0 mph - N/A   Overcast
8:34 PM 28.4 °F 18.5 °F 23.0 °F 80% 29.95 in 10.0 mi WNW 11.5 mph - N/A   Overcast
8:51 PM 28.0 °F 18.6 °F 23.0 °F 81% 29.99 in 10.0 mi WNW 10.4 mph - N/A   Overcast
9:51 PM 27.0 °F 16.7 °F 21.9 °F 81% 30.00 in 10.0 mi NW 11.5 mph - N/A   Overcast
10:51 PM 25.0 °F 16.3 °F 21.0 °F 85% 30.00 in 10.0 mi West 8.1 mph - N/A   Scattered Clouds
11:51 PM 24.1 °F 15.2 °F 19.0 °F 81% 30.00 in 10.0 mi West 8.1 mph - N/A   Mostly Cloudy